{"data":{"norad_id":62317,"epoch":"2026-05-25T01:51:10.647648Z","epoch_age_seconds":62143,"freshness":"FRESH","line1":"1 62317U 24239S   26145.07720657  .00013432  00000+0  46475-3 0  9992","line2":"2 62317  53.1579 186.0069 0001100  97.1481 262.9644 15.30204066 81260","mean_motion":15.30204066,"eccentricity":0.00011,"inclination_deg":53.1579,"raan_deg":186.0069,"arg_perigee_deg":97.1481,"mean_anomaly_deg":262.9644,"bstar":0.00046475,"rev_number":8126,"period_min":94.105095653301,"perigee_km":474.44906171091,"apogee_km":475.95679649531,"semimajor_km":6853.3399291031,"source":"CELESTRAK","updated_at":"2026-05-25T13:38:19.650613Z"}}